Location: Caualo
(45.5667°N, 10.8667°E)
Time: 00:38:08
(UTC+00:00)

In-Cosmos 22 Rocket - Pass Details

Date: 08 October 2020
Orbit: 790 x 889 km, 81.2° (Epoch: 27 October)

Event Time Altitude Azimuth Distance (km) Brightness Sun altitude
Rises 19:32:08 0° 353° (N) 3,313 7.7 -29.8°
Reaches altitude 10° 19:34:37 10° 359° (N) 2,372 6.8 -30.2°
Enters shadow 19:36:49 24° 10° (N) 1,599 5.7 -30.6°
